FLOCK 4S-46 (47684 NORAD) Tracking and Keplerian Element Data

This shows tracking and keplerian element data for the satellite.

Feedback or suggestion? Click here.




ElementValue
Catalog47684
NameFLOCK 4S-46
Epoch Orbit1259
Epoch Day105.8971778
Epoch Year2021
RAAN168.2489
Inclination97.4968
Eccentricity0.0007561
Argument of Perigee352.7633
Mean Anonmoly7.3488
Mean Motion15.12951345
Decay Rate6.74E-06
L11 47684U 21006EK 21105.89717780 .00000674 00000-0 41915-4 0 9995
L22 47684 97.4968 168.2489 0007561 352.7633 7.3488 15.12951345 12593

Live tracking and technical data element details for FLOCK 4S-46 (NORAD 47684). FLOCK 4S-46 can be tracked NOW for your location showing map with azimuth and elevation plus other details from your city location.

Track the satellite on the map from your city or location and see movement details for azimuth, elevation, latitude, longitude, range, height, and movement on the map or in text.







IsCatalogInMostPopularTable: catalog: 47684, numindb: 22
Update: records affected: 1



GetName: 47684 FLOCK 4S-46

Hit Count: updated at: Fri, 16 Apr 2021 11:06:12 GMT